RYR6RR EGSS-LEAM

Flight info

Callsign RYR6RR
Flight time 2h 39m
Altitude 38000
Route NUGBO M183 SILVA Q41 SAM N63 LELNA/N0438F370 DCT NOVAN DCT NENEM P152 PPN N10 CJN L27 BLN N865 ESILA
Aircraft B738/M-SDE3FGILRWY/SB1

Departure

Time 2026-04-25 06:38
Airport London Stansted Airport (EGSS)

Arrival

Time 2026-04-25 09:18
Airport Almería Airport (LEAM)
Time Latitude Longitude Altitude Speed Heading
2026-04-25 06:05 51.89264 0.25912 348 ft 0 kts 43°
2026-04-25 06:30 51.89263 0.25911 343 ft 2 kts 43°
2026-04-25 06:30 51.89251 0.25894 348 ft 2 kts 41°
2026-04-25 06:30 51.89238 0.25876 351 ft 2 kts 37°
2026-04-25 06:31 51.89225 0.25861 350 ft 2 kts 28°
2026-04-25 06:31 51.89209 0.25853 347 ft 2 kts 340°
2026-04-25 06:31 51.89200 0.25863 353 ft 0 kts 313°
2026-04-25 06:34 51.89201 0.25862 353 ft 1 kts 313°
2026-04-25 06:34 51.89237 0.25798 350 ft 12 kts 313°
2026-04-25 06:35 51.89295 0.25697 343 ft 12 kts 313°
2026-04-25 06:35 51.89351 0.25599 347 ft 12 kts 314°
2026-04-25 06:35 51.89407 0.25504 343 ft 11 kts 310°
2026-04-25 06:35 51.89412 0.25384 345 ft 11 kts 263°
2026-04-25 06:36 51.89427 0.25332 345 ft 5 kts 309°
2026-04-25 06:36 51.89448 0.25294 348 ft 5 kts 311°
2026-04-25 06:36 51.89469 0.25256 347 ft 4 kts 312°
2026-04-25 06:36 51.89489 0.25218 343 ft 4 kts 302°
2026-04-25 06:37 51.89495 0.25162 347 ft 9 kts 272°
2026-04-25 06:37 51.89491 0.24980 333 ft 17 kts 252°
2026-04-25 06:37 51.89439 0.24885 334 ft 0 kts 222°
2026-04-25 06:37 51.89435 0.24878 335 ft 9 kts 222°
2026-04-25 06:38 51.89175 0.24486 337 ft 93 kts 223°
2026-04-25 06:38 51.88535 0.23530 356 ft 156 kts 223°
2026-04-25 06:38 51.87634 0.22169 829 ft 192 kts 224°
2026-04-25 06:38 51.86657 0.20652 2091 ft 196 kts 223°
2026-04-25 06:39 51.85662 0.19117 3220 ft 198 kts 224°
2026-04-25 06:39 51.84650 0.17549 3737 ft 215 kts 223°
2026-04-25 06:39 51.83513 0.15799 4000 ft 239 kts 231°
2026-04-25 06:39 51.82888 0.13180 4005 ft 262 kts 269°
2026-04-25 06:40 51.83364 0.10360 4005 ft 265 kts 305°
2026-04-25 06:40 51.84765 0.08534 4009 ft 262 kts 341°
2026-04-25 06:40 51.86555 0.07988 4004 ft 263 kts 358°
2026-04-25 06:40 51.88358 0.08063 4007 ft 263 kts
2026-04-25 06:41 51.90193 0.07984 3995 ft 264 kts 355°
2026-04-25 06:41 51.92027 0.07699 3997 ft 264 kts 355°
2026-04-25 06:41 51.93857 0.07394 3997 ft 264 kts 353°
2026-04-25 06:41 51.95680 0.06998 3993 ft 264 kts 351°
2026-04-25 06:42 51.97360 0.05918 3994 ft 263 kts 319°
2026-04-25 06:42 51.98335 0.03478 4001 ft 262 kts 284°
2026-04-25 06:42 51.98402 0.00554 4009 ft 262 kts 262°
2026-04-25 06:42 51.98045 -0.02306 4003 ft 263 kts 257°
2026-04-25 06:43 51.97617 -0.05193 3999 ft 264 kts 257°
2026-04-25 06:43 51.97187 -0.08090 4002 ft 266 kts 257°
2026-04-25 06:43 51.96781 -0.11052 4514 ft 271 kts 258°
2026-04-25 06:43 51.96389 -0.14026 5559 ft 269 kts 258°
2026-04-25 06:44 51.96000 -0.16999 6496 ft 272 kts 258°
2026-04-25 06:44 51.95605 -0.20014 7361 ft 274 kts 258°
2026-04-25 06:44 51.95208 -0.23050 8248 ft 276 kts 258°
2026-04-25 06:44 51.94808 -0.26106 9144 ft 279 kts 258°
2026-04-25 06:45 51.94408 -0.29154 10008 ft 282 kts 258°
2026-04-25 06:45 51.93995 -0.32295 10671 ft 292 kts 258°
2026-04-25 06:45 51.93551 -0.35662 10868 ft 319 kts 258°
2026-04-25 06:45 51.93072 -0.39283 11230 ft 336 kts 258°
2026-04-25 06:46 51.92576 -0.43025 11918 ft 342 kts 258°
2026-04-25 06:46 51.92072 -0.46816 12707 ft 346 kts 258°
2026-04-25 06:46 51.91562 -0.50647 13463 ft 350 kts 258°
2026-04-25 06:46 51.91044 -0.54528 14205 ft 355 kts 258°
2026-04-25 06:47 51.90518 -0.58454 14904 ft 358 kts 258°
2026-04-25 06:47 51.89988 -0.62403 15655 ft 360 kts 258°
2026-04-25 06:47 51.89453 -0.66376 16396 ft 362 kts 258°
2026-04-25 06:47 51.88914 -0.70369 17103 ft 365 kts 258°
2026-04-25 06:48 51.88368 -0.74400 17830 ft 368 kts 258°
2026-04-25 06:48 51.87825 -0.78399 18545 ft 370 kts 258°
2026-04-25 06:48 51.87270 -0.82484 19160 ft 373 kts 258°
2026-04-25 06:48 51.86710 -0.86594 19787 ft 375 kts 258°
2026-04-25 06:49 51.86144 -0.90723 20400 ft 377 kts 257°
2026-04-25 06:49 51.85371 -0.94783 20965 ft 381 kts 244°
2026-04-25 06:49 51.83819 -0.98249 21547 ft 385 kts 225°
2026-04-25 06:49 51.81637 -1.00787 22141 ft 390 kts 208°
2026-04-25 06:50 51.79047 -1.02157 22671 ft 396 kts 192°
2026-04-25 06:50 51.76178 -1.02912 23257 ft 400 kts 191°
2026-04-25 06:50 51.73550 -1.03519 23738 ft 403 kts 190°
2026-04-25 06:50 51.70798 -1.04160 24171 ft 406 kts 191°
2026-04-25 06:51 51.67998 -1.04847 24661 ft 408 kts 191°
2026-04-25 06:51 51.65197 -1.05563 25140 ft 409 kts 191°
2026-04-25 06:51 51.62383 -1.06293 25599 ft 410 kts 191°
2026-04-25 06:51 51.59593 -1.07268 26027 ft 411 kts 197°
2026-04-25 06:52 51.56976 -1.08405 26446 ft 412 kts 197°
2026-04-25 06:52 51.54204 -1.09633 26868 ft 414 kts 197°
2026-04-25 06:52 51.51413 -1.10847 27283 ft 416 kts 197°
2026-04-25 06:52 51.48611 -1.12046 27697 ft 418 kts 197°
2026-04-25 06:53 51.45830 -1.13232 28102 ft 420 kts 197°
2026-04-25 06:53 51.43007 -1.14449 28496 ft 421 kts 197°
2026-04-25 06:53 51.40169 -1.15675 28882 ft 423 kts 197°
2026-04-25 06:53 51.37324 -1.16901 29255 ft 425 kts 197°
2026-04-25 06:54 51.34465 -1.18128 29624 ft 426 kts 197°
2026-04-25 06:54 51.31596 -1.19350 29994 ft 427 kts 197°
2026-04-25 06:54 51.28715 -1.20574 30328 ft 429 kts 197°
2026-04-25 06:54 51.25823 -1.21802 30608 ft 431 kts 197°
2026-04-25 06:55 51.22927 -1.23031 30928 ft 431 kts 197°
2026-04-25 06:55 51.20034 -1.24257 31320 ft 429 kts 197°
2026-04-25 06:55 51.17152 -1.25471 31738 ft 427 kts 197°
2026-04-25 06:55 51.14277 -1.26674 32126 ft 426 kts 197°
2026-04-25 06:56 51.11410 -1.27871 32471 ft 426 kts 197°
2026-04-25 06:56 51.08543 -1.29067 32814 ft 426 kts 197°
2026-04-25 06:56 51.05677 -1.30263 33198 ft 424 kts 197°
2026-04-25 06:56 51.02835 -1.31448 33554 ft 423 kts 197°
2026-04-25 06:57 50.99988 -1.32634 33876 ft 423 kts 197°
2026-04-25 06:57 50.97146 -1.33818 34224 ft 422 kts 197°
2026-04-25 06:57 50.94376 -1.35301 34486 ft 420 kts 206°
2026-04-25 06:57 50.91793 -1.37317 34722 ft 419 kts 208°
2026-04-25 06:58 50.89202 -1.39441 34940 ft 420 kts 208°
2026-04-25 06:58 50.86609 -1.41567 35190 ft 420 kts 208°
2026-04-25 06:58 50.84012 -1.43675 35436 ft 420 kts 208°
2026-04-25 06:58 50.81407 -1.45767 35664 ft 420 kts 208°
2026-04-25 06:59 50.78796 -1.47851 35888 ft 420 kts 208°
2026-04-25 06:59 50.76186 -1.49928 36105 ft 421 kts 208°
2026-04-25 06:59 50.73566 -1.52008 36326 ft 421 kts 208°
2026-04-25 06:59 50.70949 -1.54081 36559 ft 421 kts 208°
2026-04-25 07:00 50.68294 -1.56181 36748 ft 422 kts 208°
2026-04-25 07:00 50.65705 -1.58225 36943 ft 422 kts 208°
2026-04-25 07:00 50.63080 -1.60295 37156 ft 422 kts 208°
2026-04-25 07:00 50.60455 -1.62363 37361 ft 422 kts 208°
2026-04-25 07:01 50.57825 -1.64433 37536 ft 423 kts 208°
2026-04-25 07:01 50.55191 -1.66504 37721 ft 423 kts 208°
2026-04-25 07:01 50.52558 -1.68572 37923 ft 423 kts 208°
2026-04-25 07:01 50.49926 -1.70637 38117 ft 423 kts 208°
2026-04-25 07:02 50.47326 -1.72674 38190 ft 425 kts 208°
2026-04-25 07:02 50.42026 -1.76818 38193 ft 425 kts 208°
2026-04-25 07:03 50.36755 -1.80928 38188 ft 422 kts 208°
2026-04-25 07:03 50.31516 -1.85005 38186 ft 419 kts 208°
2026-04-25 07:04 50.26311 -1.89045 38183 ft 417 kts 208°
2026-04-25 07:04 50.21155 -1.93037 38185 ft 416 kts 208°
2026-04-25 07:05 50.15973 -1.97040 38181 ft 416 kts 208°
2026-04-25 07:05 50.10782 -2.01041 38183 ft 417 kts 208°
2026-04-25 07:06 50.05576 -2.05045 38188 ft 418 kts 208°
2026-04-25 07:06 50.00351 -2.09052 38187 ft 420 kts 208°
2026-04-25 07:07 49.94947 -2.12367 38200 ft 423 kts 199°
2026-04-25 07:07 49.89297 -2.14958 38187 ft 424 kts 198°
2026-04-25 07:08 49.83620 -2.17541 38179 ft 425 kts 198°
2026-04-25 07:08 49.77944 -2.20154 38182 ft 426 kts 199°
2026-04-25 07:09 49.72303 -2.22766 38183 ft 426 kts 199°
2026-04-25 07:09 49.66621 -2.25398 38187 ft 426 kts 199°
2026-04-25 07:10 49.60950 -2.28019 38187 ft 425 kts 199°
2026-04-25 07:10 49.55286 -2.30630 38175 ft 424 kts 199°
2026-04-25 07:11 49.49639 -2.33226 38158 ft 423 kts 198°
2026-04-25 07:11 49.44040 -2.35794 38164 ft 422 kts 198°
2026-04-25 07:12 49.38410 -2.38370 38154 ft 422 kts 198°
2026-04-25 07:12 49.29978 -2.42217 38158 ft 421 kts 198°
2026-04-25 07:13 49.24369 -2.44769 38158 ft 420 kts 198°
2026-04-25 07:13 49.18761 -2.47313 38156 ft 420 kts 198°
2026-04-25 07:14 49.13157 -2.49850 38159 ft 420 kts 198°
2026-04-25 07:14 49.07623 -2.52350 38155 ft 420 kts 198°
2026-04-25 07:15 49.02012 -2.54878 38151 ft 421 kts 198°
2026-04-25 07:15 48.96397 -2.57402 38143 ft 421 kts 198°
2026-04-25 07:16 48.90771 -2.59925 38150 ft 422 kts 198°
2026-04-25 07:16 48.85176 -2.62429 38153 ft 422 kts 198°
2026-04-25 07:17 48.79535 -2.64947 38155 ft 423 kts 198°
2026-04-25 07:17 48.73883 -2.67464 38157 ft 423 kts 198°
2026-04-25 07:18 48.68229 -2.69975 38147 ft 424 kts 198°
2026-04-25 07:18 48.62566 -2.72486 38161 ft 424 kts 198°
2026-04-25 07:19 48.56939 -2.74974 38161 ft 424 kts 198°
2026-04-25 07:19 48.51272 -2.77474 38158 ft 424 kts 198°
2026-04-25 07:20 48.45603 -2.79969 38158 ft 424 kts 198°
2026-04-25 07:20 48.39937 -2.82457 38160 ft 424 kts 198°
2026-04-25 07:21 48.34308 -2.84924 38153 ft 424 kts 198°
2026-04-25 07:21 48.28643 -2.87399 38148 ft 424 kts 198°
2026-04-25 07:22 48.22982 -2.89868 38149 ft 423 kts 198°
2026-04-25 07:22 48.17328 -2.92328 38143 ft 423 kts 198°
2026-04-25 07:23 48.11671 -2.94784 38146 ft 423 kts 198°
2026-04-25 07:23 48.06058 -2.97215 38143 ft 423 kts 198°
2026-04-25 07:24 48.00403 -2.99658 38147 ft 423 kts 198°
2026-04-25 07:24 47.94750 -3.02096 38143 ft 423 kts 198°
2026-04-25 07:25 47.89087 -3.04532 38138 ft 424 kts 198°
2026-04-25 07:25 47.83418 -3.06965 38132 ft 424 kts 198°
2026-04-25 07:26 47.77782 -3.09378 38139 ft 425 kts 198°
2026-04-25 07:26 47.72097 -3.11807 38133 ft 425 kts 198°
2026-04-25 07:27 47.66404 -3.14233 38130 ft 426 kts 198°
2026-04-25 07:27 47.60703 -3.16658 38136 ft 426 kts 197°
2026-04-25 07:28 47.55035 -3.19063 38131 ft 427 kts 197°
2026-04-25 07:28 47.49327 -3.21480 38131 ft 427 kts 197°
2026-04-25 07:29 47.43616 -3.23892 38133 ft 427 kts 197°
2026-04-25 07:29 47.37903 -3.26300 38131 ft 427 kts 197°
2026-04-25 07:30 47.32226 -3.28687 38128 ft 427 kts 197°
2026-04-25 07:30 47.26506 -3.31087 38130 ft 427 kts 197°
2026-04-25 07:31 47.20786 -3.33482 38129 ft 428 kts 197°
2026-04-25 07:31 47.15054 -3.35876 38126 ft 428 kts 197°
2026-04-25 07:32 47.09321 -3.38265 38131 ft 429 kts 197°
2026-04-25 07:32 47.03616 -3.40637 38131 ft 429 kts 197°
2026-04-25 07:33 46.97867 -3.43023 38130 ft 430 kts 197°
2026-04-25 07:33 46.92110 -3.45406 38128 ft 430 kts 197°
2026-04-25 07:34 46.86344 -3.47788 38128 ft 431 kts 197°
2026-04-25 07:34 46.80610 -3.50151 38126 ft 431 kts 197°
2026-04-25 07:35 46.74827 -3.52529 38131 ft 432 kts 197°
2026-04-25 07:35 46.69043 -3.54902 38132 ft 432 kts 197°
2026-04-25 07:36 46.63248 -3.57275 38126 ft 433 kts 197°
2026-04-25 07:36 46.58430 -3.59244 38128 ft 433 kts 197°
2026-04-25 07:37 46.51687 -3.61993 38128 ft 433 kts 197°
2026-04-25 07:37 46.45883 -3.64354 38134 ft 433 kts 197°
2026-04-25 07:38 46.40078 -3.66710 38132 ft 433 kts 197°
2026-04-25 07:38 46.35247 -3.68642 38123 ft 434 kts 194°
2026-04-25 07:39 46.28244 -3.69065 38114 ft 438 kts 173°
2026-04-25 07:39 46.22241 -3.67545 38125 ft 438 kts 171°
2026-04-25 07:40 46.17256 -3.66216 38130 ft 438 kts 171°
2026-04-25 07:40 46.11175 -3.64639 38125 ft 438 kts 172°
2026-04-25 07:41 46.05171 -3.63126 38124 ft 438 kts 172°
2026-04-25 07:41 45.99164 -3.61630 38128 ft 438 kts 172°
2026-04-25 07:42 45.93204 -3.60151 38126 ft 438 kts 172°
2026-04-25 07:42 45.87203 -3.58664 38127 ft 437 kts 172°
2026-04-25 07:43 45.81208 -3.57181 38129 ft 437 kts 172°
2026-04-25 07:43 45.75216 -3.55702 38124 ft 437 kts 172°
2026-04-25 07:44 45.69231 -3.54228 38135 ft 436 kts 172°
2026-04-25 07:44 45.63291 -3.52768 38129 ft 436 kts 172°
2026-04-25 07:45 45.57310 -3.51301 38129 ft 436 kts 172°
2026-04-25 07:45 45.51339 -3.49840 38133 ft 435 kts 172°
2026-04-25 07:46 45.45369 -3.48382 38135 ft 435 kts 172°
2026-04-25 07:46 45.39441 -3.46938 38135 ft 435 kts 172°
2026-04-25 07:47 45.33474 -3.45487 38135 ft 435 kts 172°
2026-04-25 07:47 45.27510 -3.44040 38137 ft 435 kts 172°
2026-04-25 07:48 45.21545 -3.42596 38137 ft 435 kts 172°
2026-04-25 07:48 45.15619 -3.41164 38143 ft 435 kts 172°
2026-04-25 07:49 45.09654 -3.39726 38140 ft 435 kts 172°
2026-04-25 07:49 45.03691 -3.38291 38143 ft 435 kts 172°
2026-04-25 07:50 44.97689 -3.36850 38148 ft 434 kts 172°
2026-04-25 07:50 44.91731 -3.35423 38149 ft 434 kts 172°
2026-04-25 07:51 44.85814 -3.34009 38150 ft 434 kts 172°
2026-04-25 07:51 44.79860 -3.32588 38153 ft 434 kts 172°
2026-04-25 07:52 44.73909 -3.31171 38154 ft 434 kts 172°
2026-04-25 07:52 44.67964 -3.29759 38158 ft 433 kts 172°
2026-04-25 07:53 44.62023 -3.28350 38147 ft 433 kts 172°
2026-04-25 07:53 44.56085 -3.26946 38158 ft 432 kts 172°
2026-04-25 07:54 44.50192 -3.25554 38160 ft 432 kts 172°
2026-04-25 07:54 44.44263 -3.24158 38158 ft 432 kts 172°
2026-04-25 07:55 44.38344 -3.22766 38159 ft 431 kts 172°
2026-04-25 07:55 44.32425 -3.21376 38163 ft 431 kts 172°
2026-04-25 07:56 44.26549 -3.20001 38174 ft 431 kts 172°
2026-04-25 07:56 44.20638 -3.18619 38169 ft 431 kts 172°
2026-04-25 07:57 44.14725 -3.17239 38178 ft 431 kts 172°
2026-04-25 07:57 44.08819 -3.15838 38181 ft 431 kts 169°
2026-04-25 07:58 44.03270 -3.12776 38178 ft 436 kts 151°
2026-04-25 07:58 43.98425 -3.07690 38179 ft 438 kts 142°
2026-04-25 07:59 43.93737 -3.02284 38184 ft 438 kts 142°
2026-04-25 07:59 43.89018 -2.96926 38176 ft 438 kts 143°
2026-04-25 08:00 43.84274 -2.91608 38186 ft 438 kts 143°
2026-04-25 08:00 43.79558 -2.86344 38185 ft 439 kts 143°
2026-04-25 08:01 43.74810 -2.81049 38189 ft 438 kts 143°
2026-04-25 08:01 43.70082 -2.75710 38190 ft 439 kts 142°
2026-04-25 08:02 43.65379 -2.70349 38198 ft 438 kts 143°
2026-04-25 08:02 43.60658 -2.65122 38205 ft 438 kts 143°
2026-04-25 08:03 43.55894 -2.59884 38202 ft 438 kts 143°
2026-04-25 08:03 43.51133 -2.54645 38206 ft 438 kts 143°
2026-04-25 08:04 43.46376 -2.49410 38212 ft 438 kts 143°
2026-04-25 08:04 43.41616 -2.44180 38208 ft 438 kts 143°
2026-04-25 08:05 43.36887 -2.38996 38212 ft 438 kts 143°
2026-04-25 08:05 43.32128 -2.33789 38209 ft 437 kts 143°
2026-04-25 08:06 43.27364 -2.28589 38213 ft 437 kts 143°
2026-04-25 08:06 43.22602 -2.23400 38216 ft 437 kts 143°
2026-04-25 08:07 43.17869 -2.18254 38206 ft 437 kts 143°
2026-04-25 08:07 43.13104 -2.13081 38204 ft 437 kts 143°
2026-04-25 08:08 43.08337 -2.07919 38207 ft 436 kts 143°
2026-04-25 08:08 43.03581 -2.02765 38199 ft 436 kts 143°
2026-04-25 08:09 42.98831 -1.97625 38191 ft 435 kts 143°
2026-04-25 08:09 42.94126 -1.92541 38190 ft 434 kts 143°
2026-04-25 08:10 42.89393 -1.87441 38186 ft 434 kts 143°
2026-04-25 08:10 42.84667 -1.82337 38187 ft 434 kts 143°
2026-04-25 08:11 42.79937 -1.77233 38183 ft 434 kts 143°
2026-04-25 08:11 42.74892 -1.73034 38196 ft 426 kts 168°
2026-04-25 08:12 42.71971 -1.72560 38182 ft 423 kts 184°
2026-04-25 08:12 42.69081 -1.73151 38179 ft 421 kts 199°
2026-04-25 08:12 42.63788 -1.76490 38178 ft 420 kts 207°
2026-04-25 08:13 42.58572 -1.80117 38177 ft 422 kts 207°
2026-04-25 08:14 42.50674 -1.85450 38171 ft 424 kts 207°
2026-04-25 08:14 42.45413 -1.88957 38167 ft 425 kts 207°
2026-04-25 08:15 42.40110 -1.92491 38173 ft 425 kts 207°
2026-04-25 08:15 42.34797 -1.96033 38171 ft 426 kts 207°
2026-04-25 08:16 42.29486 -1.99575 38176 ft 426 kts 207°
2026-04-25 08:16 42.24211 -2.03085 38176 ft 425 kts 206°
2026-04-25 08:17 42.18903 -2.06604 38167 ft 425 kts 206°
2026-04-25 08:17 42.13604 -2.10110 38169 ft 424 kts 206°
2026-04-25 08:18 42.08309 -2.13604 38166 ft 423 kts 206°
2026-04-25 08:18 42.03023 -2.17087 38162 ft 422 kts 206°
2026-04-25 08:19 41.97785 -2.20534 38170 ft 421 kts 206°
2026-04-25 08:19 41.92521 -2.23991 38167 ft 421 kts 206°
2026-04-25 08:20 41.87261 -2.27440 38167 ft 421 kts 206°
2026-04-25 08:20 41.82000 -2.30883 38157 ft 421 kts 206°
2026-04-25 08:21 41.76775 -2.34296 38160 ft 421 kts 206°
2026-04-25 08:21 41.71509 -2.37730 38161 ft 421 kts 206°
2026-04-25 08:22 41.66240 -2.41160 38153 ft 421 kts 206°
2026-04-25 08:22 41.60968 -2.44585 38155 ft 422 kts 206°
2026-04-25 08:23 41.55685 -2.48012 38155 ft 422 kts 206°
2026-04-25 08:23 41.50429 -2.51415 38155 ft 423 kts 206°
2026-04-25 08:24 41.45130 -2.54828 38155 ft 423 kts 206°
2026-04-25 08:24 41.39815 -2.58242 38148 ft 424 kts 206°
2026-04-25 08:25 41.34443 -2.61476 38134 ft 425 kts 197°
2026-04-25 08:25 41.28633 -2.62738 38139 ft 425 kts 179°
2026-04-25 08:26 41.22763 -2.62237 38153 ft 426 kts 176°
2026-04-25 08:26 41.16845 -2.61616 38148 ft 427 kts 176°
2026-04-25 08:27 41.10916 -2.61056 38147 ft 428 kts 176°
2026-04-25 08:27 41.04966 -2.60523 38142 ft 429 kts 176°
2026-04-25 08:28 40.99047 -2.59994 38139 ft 430 kts 176°
2026-04-25 08:28 40.93080 -2.59460 38135 ft 430 kts 176°
2026-04-25 08:29 40.87096 -2.58925 38138 ft 431 kts 176°
2026-04-25 08:29 40.81107 -2.58390 38137 ft 432 kts 176°
2026-04-25 08:30 40.75149 -2.57860 38137 ft 433 kts 176°
2026-04-25 08:30 40.69137 -2.57325 38135 ft 433 kts 176°
2026-04-25 08:31 40.63092 -2.56788 38135 ft 433 kts 176°
2026-04-25 08:31 40.57081 -2.56256 38131 ft 434 kts 176°
2026-04-25 08:32 40.51064 -2.55723 38130 ft 434 kts 176°
2026-04-25 08:32 40.45086 -2.55195 38131 ft 433 kts 176°
2026-04-25 08:33 40.39080 -2.54814 38118 ft 431 kts 184°
2026-04-25 08:33 40.33239 -2.56347 38126 ft 429 kts 200°
2026-04-25 08:34 40.27689 -2.59171 38131 ft 428 kts 201°
2026-04-25 08:34 40.22198 -2.62000 38128 ft 426 kts 201°
2026-04-25 08:35 40.16673 -2.64797 38130 ft 425 kts 200°
2026-04-25 08:35 40.11158 -2.67559 38135 ft 424 kts 200°
2026-04-25 08:36 40.05652 -2.70305 38141 ft 423 kts 200°
2026-04-25 08:36 40.00197 -2.73021 38137 ft 422 kts 200°
2026-04-25 08:37 39.94711 -2.75750 38142 ft 422 kts 200°
2026-04-25 08:37 39.89225 -2.78473 38139 ft 422 kts 200°
2026-04-25 08:38 39.83731 -2.81196 38133 ft 423 kts 200°
2026-04-25 08:38 39.78228 -2.83919 38139 ft 423 kts 200°
2026-04-25 08:39 39.72753 -2.86624 38138 ft 424 kts 200°
2026-04-25 08:39 39.67229 -2.89349 38135 ft 426 kts 200°
2026-04-25 08:40 39.61682 -2.92080 38134 ft 427 kts 200°
2026-04-25 08:40 39.56127 -2.94813 38134 ft 428 kts 200°
2026-04-25 08:41 39.50594 -2.97539 38132 ft 429 kts 200°
2026-04-25 08:41 39.45012 -3.00288 38132 ft 430 kts 200°
2026-04-25 08:42 39.39422 -3.03033 38130 ft 430 kts 199°
2026-04-25 08:42 39.33820 -3.05759 38128 ft 430 kts 199°
2026-04-25 08:43 39.28212 -3.08476 38130 ft 430 kts 199°
2026-04-25 08:43 39.22641 -3.11173 38125 ft 431 kts 199°
2026-04-25 08:44 39.17031 -3.13887 38129 ft 431 kts 199°
2026-04-25 08:44 39.11417 -3.16599 38124 ft 431 kts 199°
2026-04-25 08:45 39.05803 -3.19306 38122 ft 431 kts 199°
2026-04-25 08:45 39.00181 -3.22012 38116 ft 431 kts 199°
2026-04-25 08:46 38.94595 -3.24702 38121 ft 432 kts 200°
2026-04-25 08:46 38.88964 -3.27416 38114 ft 432 kts 200°
2026-04-25 08:47 38.83330 -3.30127 38114 ft 433 kts 200°
2026-04-25 08:47 38.77721 -3.32821 38112 ft 434 kts 200°
2026-04-25 08:48 38.72067 -3.35531 38117 ft 434 kts 200°
2026-04-25 08:48 38.66402 -3.38243 38108 ft 435 kts 200°
2026-04-25 08:49 38.60733 -3.40952 38111 ft 435 kts 200°
2026-04-25 08:49 38.55056 -3.43660 38107 ft 436 kts 200°
2026-04-25 08:50 38.49406 -3.46350 38111 ft 436 kts 200°
2026-04-25 08:50 38.43712 -3.49057 38106 ft 437 kts 200°
2026-04-25 08:51 38.38011 -3.51763 38111 ft 438 kts 200°
2026-04-25 08:51 38.32297 -3.54471 38104 ft 438 kts 200°
2026-04-25 08:52 38.26555 -3.57187 37676 ft 445 kts 199°
2026-04-25 08:52 38.23713 -3.58531 37345 ft 439 kts 199°
2026-04-25 08:52 38.20861 -3.59878 36917 ft 435 kts 199°
2026-04-25 08:52 38.18044 -3.61206 36533 ft 430 kts 198°
2026-04-25 08:53 38.15186 -3.62223 36155 ft 423 kts 188°
2026-04-25 08:53 38.12301 -3.62642 35890 ft 413 kts 179°
2026-04-25 08:53 38.09455 -3.62664 35634 ft 405 kts 178°
2026-04-25 08:53 38.06649 -3.62653 35293 ft 401 kts 177°
2026-04-25 08:54 38.03904 -3.62641 34922 ft 398 kts 177°
2026-04-25 08:54 38.01145 -3.62639 34554 ft 395 kts 176°
2026-04-25 08:54 37.98405 -3.62647 34184 ft 392 kts 176°
2026-04-25 08:54 37.95684 -3.62662 33769 ft 390 kts 176°
2026-04-25 08:55 37.92985 -3.62681 33370 ft 386 kts 176°
2026-04-25 08:55 37.90309 -3.62702 33007 ft 383 kts 176°
2026-04-25 08:55 37.87657 -3.62723 32640 ft 379 kts 176°
2026-04-25 08:55 37.85028 -3.62744 32267 ft 376 kts 176°
2026-04-25 08:56 37.82423 -3.62765 31914 ft 373 kts 176°
2026-04-25 08:56 37.79836 -3.62785 31553 ft 370 kts 177°
2026-04-25 08:56 37.77308 -3.62805 31208 ft 367 kts 177°
2026-04-25 08:56 37.74765 -3.62825 30867 ft 364 kts 177°
2026-04-25 08:57 37.72241 -3.62845 30515 ft 362 kts 177°
2026-04-25 08:57 37.69735 -3.62865 30168 ft 359 kts 177°
2026-04-25 08:57 37.67245 -3.62883 29789 ft 356 kts 177°
2026-04-25 08:57 37.64782 -3.62903 29425 ft 353 kts 177°
2026-04-25 08:58 37.62345 -3.62923 29154 ft 348 kts 177°
2026-04-25 08:58 37.59914 -3.62942 28882 ft 351 kts 177°
2026-04-25 08:58 37.57516 -3.62960 28593 ft 348 kts 177°
2026-04-25 08:58 37.55105 -3.62979 28231 ft 345 kts 177°
2026-04-25 08:59 37.52697 -3.62997 27608 ft 350 kts 177°
2026-04-25 08:59 37.50235 -3.63014 26908 ft 357 kts 177°
2026-04-25 08:59 37.47735 -3.63033 26365 ft 360 kts 177°
2026-04-25 08:59 37.45239 -3.63053 25982 ft 358 kts 177°
2026-04-25 09:00 37.42768 -3.63009 25622 ft 352 kts 169°
2026-04-25 09:00 37.40457 -3.62122 25199 ft 346 kts 149°
2026-04-25 09:00 37.38532 -3.60360 24848 ft 341 kts 134°
2026-04-25 09:00 37.37105 -3.58013 24470 ft 338 kts 119°
2026-04-25 09:01 37.36011 -3.55401 24124 ft 337 kts 116°
2026-04-25 09:01 37.34999 -3.52797 23738 ft 336 kts 116°
2026-04-25 09:01 37.33985 -3.50159 23296 ft 334 kts 116°
2026-04-25 09:01 37.32967 -3.47538 22899 ft 332 kts 116°
2026-04-25 09:02 37.31949 -3.44944 22528 ft 330 kts 116°
2026-04-25 09:02 37.30927 -3.42363 22125 ft 329 kts 116°
2026-04-25 09:02 37.29904 -3.39796 21736 ft 328 kts 116°
2026-04-25 09:02 37.28884 -3.37241 21345 ft 327 kts 117°
2026-04-25 09:03 37.27864 -3.34694 20969 ft 326 kts 117°
2026-04-25 09:03 37.26847 -3.32156 20594 ft 325 kts 117°
2026-04-25 09:03 37.25834 -3.29633 20243 ft 323 kts 117°
2026-04-25 09:03 37.24839 -3.27150 19892 ft 322 kts 116°
2026-04-25 09:04 37.23845 -3.24641 19529 ft 321 kts 116°
2026-04-25 09:04 37.22857 -3.22135 19181 ft 320 kts 116°
2026-04-25 09:04 37.21876 -3.19643 18844 ft 318 kts 116°
2026-04-25 09:04 37.20897 -3.17160 18513 ft 317 kts 116°
2026-04-25 09:05 37.19920 -3.14685 18146 ft 316 kts 116°
2026-04-25 09:05 37.18946 -3.12221 17785 ft 314 kts 116°
2026-04-25 09:05 37.17991 -3.09806 17443 ft 313 kts 116°
2026-04-25 09:05 37.17028 -3.07375 17047 ft 310 kts 117°
2026-04-25 09:06 37.16069 -3.04953 16619 ft 311 kts 117°
2026-04-25 09:06 37.15109 -3.02532 16278 ft 309 kts 117°
2026-04-25 09:06 37.14155 -3.00131 15965 ft 307 kts 117°
2026-04-25 09:06 37.13207 -2.97744 15654 ft 305 kts 117°
2026-04-25 09:07 37.12265 -2.95373 15345 ft 303 kts 117°
2026-04-25 09:07 37.11328 -2.93017 15023 ft 302 kts 116°
2026-04-25 09:07 37.10395 -2.90673 14760 ft 299 kts 116°
2026-04-25 09:07 37.09487 -2.88391 14503 ft 295 kts 116°
2026-04-25 09:08 37.08576 -2.86105 14266 ft 292 kts 116°
2026-04-25 09:08 37.07675 -2.83849 14169 ft 287 kts 116°
2026-04-25 09:08 37.06809 -2.81681 14155 ft 284 kts 116°
2026-04-25 09:08 37.05731 -2.79634 14044 ft 284 kts 136°
2026-04-25 09:09 37.04065 -2.78354 13823 ft 283 kts 161°
2026-04-25 09:09 37.02118 -2.78009 13434 ft 286 kts 182°
2026-04-25 09:09 37.00175 -2.78352 12988 ft 285 kts 188°
2026-04-25 09:09 36.98222 -2.78796 12472 ft 285 kts 189°
2026-04-25 09:10 36.96273 -2.79235 11993 ft 284 kts 189°
2026-04-25 09:10 36.94325 -2.79379 11511 ft 280 kts 168°
2026-04-25 09:10 36.92466 -2.78723 11078 ft 276 kts 161°
2026-04-25 09:10 36.90638 -2.78000 10608 ft 275 kts 161°
2026-04-25 09:11 36.86997 -2.76599 9750 ft 273 kts 161°
2026-04-25 09:11 36.85188 -2.75907 9287 ft 271 kts 162°
2026-04-25 09:11 36.83414 -2.75231 8834 ft 269 kts 162°
2026-04-25 09:12 36.81628 -2.74551 8392 ft 268 kts 162°
2026-04-25 09:12 36.79848 -2.73874 8008 ft 265 kts 162°
2026-04-25 09:12 36.78187 -2.73034 7665 ft 254 kts 144°
2026-04-25 09:12 36.77036 -2.71408 7089 ft 252 kts 114°
2026-04-25 09:13 36.76625 -2.69322 6549 ft 248 kts 90°
2026-04-25 09:13 36.76871 -2.67209 5990 ft 246 kts 74°
2026-04-25 09:13 36.77361 -2.65229 5686 ft 234 kts 71°
2026-04-25 09:13 36.77846 -2.63369 5523 ft 218 kts 71°
2026-04-25 09:14 36.78304 -2.61582 5103 ft 215 kts 71°
2026-04-25 09:14 36.78757 -2.59810 4675 ft 213 kts 71°
2026-04-25 09:14 36.79199 -2.58059 4273 ft 210 kts 71°
2026-04-25 09:14 36.79632 -2.56325 3874 ft 207 kts 71°
2026-04-25 09:15 36.80051 -2.54633 3547 ft 201 kts 71°
2026-04-25 09:15 36.80447 -2.53032 3383 ft 187 kts 71°
2026-04-25 09:15 36.80821 -2.51520 3116 ft 180 kts 72°
2026-04-25 09:15 36.81173 -2.50094 2961 ft 167 kts 71°
2026-04-25 09:16 36.81511 -2.48725 2570 ft 163 kts 71°
2026-04-25 09:16 36.81837 -2.47374 2219 ft 164 kts 76°
2026-04-25 09:16 36.82034 -2.45949 1840 ft 166 kts 72°
2026-04-25 09:16 36.82398 -2.44617 1467 ft 159 kts 70°
2026-04-25 09:17 36.83047 -2.42232 1013 ft 145 kts 70°
2026-04-25 09:17 36.83381 -2.41062 674 ft 142 kts 72°
2026-04-25 09:17 36.83671 -2.39922 349 ft 134 kts 71°
2026-04-25 09:18 36.83943 -2.38851 102 ft 124 kts 72°
2026-04-25 09:18 36.84181 -2.37882 41 ft 100 kts 73°
2026-04-25 09:18 36.84311 -2.37349 49 ft 39 kts 73°
2026-04-25 09:18 36.84426 -2.37084 52 ft 30 kts 46°
2026-04-25 09:19 36.84506 -2.36990 53 ft 2 kts 43°
2026-04-25 09:19 36.84516 -2.36977 52 ft 2 kts 43°
2026-04-25 09:19 36.84529 -2.36962 54 ft 5 kts 43°
2026-04-25 09:19 36.84569 -2.36916 54 ft 11 kts 39°
2026-04-25 09:20 36.84640 -2.36943 57 ft 15 kts 301°
2026-04-25 09:20 36.84626 -2.37077 56 ft 16 kts 253°
2026-04-25 09:20 36.84613 -2.37163 55 ft 5 kts 292°
2026-04-25 09:20 36.84642 -2.37179 54 ft 5 kts 345°
2026-04-25 09:21 36.84661 -2.37186 51 ft 0 kts 343°
2026-04-25 09:21 36.84667 -2.37188 52 ft 4 kts 343°
2026-04-25 09:22 36.84689 -2.37178 50 ft 3 kts 68°
2026-04-25 09:22 36.84678 -2.37162 53 ft 3 kts 154°
2026-04-25 09:22 36.84671 -2.37157 55 ft 0 kts 147°